Springfield, MO

9:49 PM CST on December 13, 2019 (GMT -0600)
Springfield-Branson Regional

Weather History for KSGF - October, 2019

Change the Weather History Date:

Thursday, October 31, 2019

  Actual Average Record
Temperature  
Mean Temperature 34 °F 53 °F  
Max Temperature 41 °F 64 °F 83 °F (1950)
Min Temperature 27 °F 42 °F 18 °F (1993)
Degree Days  
Heating Degree Days 31 12  
Month to date heating degree days 334 252  
Since 1 July heating degree days 334 308  
Cooling Degree Days 0 0  
Month to date cooling degree days 37 28  
Year to date cooling degree days 1687 1387  
Moisture  
Dew Point 24 °F    
Average Humidity 70    
Maximum Humidity 92    
Minimum Humidity 48    
Precipitation  
Precipitation T in 0.12 in 2.42 in (2005)
Month to date precipitation 8.18 3.59  
Year to date precipitation 49.87 38.31  
Snow  
Snow T in - - ()
Month to date snowfall T  
Since 1 July snowfall T  
Since 1 September snowfall T  
Snow Depth T in    
Sea Level Pressure  
Sea Level Pressure 30.22 in    
Wind  
Wind Speed 11 mph (WNW)    
Max Wind Speed 22 mph    
Max Gust Speed 33 mph    
Visibility 9 miles    
Events Snow    
T = Trace of Precipitation, MM = Missing Value Source: NWS Daily Summary

Daily Weather History Graph

Daily Weather History Graph

Search for Another Location

Airport or City:

Astronomy

Oct. 31, 2019 Rise Set
Actual Time 7:36 AM CDT 6:16 PM CDT
Civil Twilight 7:09 AM CDT 6:43 PM CDT
Nautical Twilight 6:39 AM CDT 7:14 PM CDT
Astronomical Twilight 6:08 AM CDT 7:44 PM CDT
Moon 11:22 AM CDT (10/31) 9:17 PM CDT (10/31)
Length of Visible Light 11h 34m
Length of Day
10h 40m
Waxing Crescent, 16% of the Moon is Illuminated
Oct 31
Waxing Crescent
Nov 4
First Quarter
Nov 12
Full
Nov 19
Last Quarter
Nov 26
New

Hourly Weather History & Observations

Time (CDT) Temp. Windchill Dew Point Humidity Pressure Visibility Wind Dir Wind Speed Gust Speed Precip Events Conditions
12:00 AM 30.9 °F 20.2 °F 28.0 °F 89% 30.12 in 4.0 mi NNW 15.0 mph 27.6 mph 0.00 in Snow Light Snow
12:36 AM 30.9 °F 19.4 °F 28.0 °F 89% 30.12 in 8.0 mi NW 17.3 mph - 0.00 in Snow Light Snow
12:52 AM 30.9 °F 20.7 °F 28.0 °F 89% 30.16 in 6.0 mi NW 13.8 mph - 0.00 in Snow Light Snow
12:59 AM 30.9 °F 20.7 °F 28.0 °F 89% 30.12 in 5.0 mi NW 13.8 mph 24.2 mph 0.00 in Snow Light Snow
1:30 AM 30.9 °F 19.4 °F 28.0 °F 89% 30.12 in 9.0 mi NW 17.3 mph - 0.00 in Snow Light Snow
1:52 AM 30.9 °F 19.8 °F 28.0 °F 89% 30.17 in 8.0 mi NNW 16.1 mph 24.2 mph 0.00 in   Overcast
2:13 AM 30.9 °F 20.7 °F 28.0 °F 89% 30.13 in 6.0 mi NW 13.8 mph 24.2 mph N/A   Overcast
2:31 AM 30.9 °F 19.1 °F 27.0 °F 85% 30.14 in 10.0 mi NW 18.4 mph 28.8 mph N/A   Overcast
2:52 AM 30.9 °F 19.4 °F 27.0 °F 85% 30.17 in 10.0 mi NW 17.3 mph - N/A   Overcast
3:52 AM 30.0 °F 20.5 °F 27.0 °F 88% 30.17 in 9.0 mi NW 11.5 mph 24.2 mph N/A   Overcast
4:52 AM 30.0 °F 19.5 °F 26.1 °F 85% 30.18 in 9.0 mi NW 13.8 mph - N/A   Overcast
5:24 AM 30.0 °F 20.0 °F 26.1 °F 85% 30.16 in 9.0 mi NW 12.7 mph - N/A   Overcast
5:38 AM 30.0 °F 21.1 °F 26.1 °F 85% 30.16 in 10.0 mi NW 10.4 mph 23.0 mph N/A   Overcast
5:52 AM 28.9 °F 19.2 °F 25.0 °F 85% 30.19 in 10.0 mi NW 11.5 mph - N/A   Overcast
6:52 AM 28.9 °F 16.9 °F 24.1 °F 82% 30.20 in 10.0 mi NW 17.3 mph 25.3 mph N/A   Overcast
7:19 AM 28.9 °F 19.2 °F 23.0 °F 78% 30.19 in 10.0 mi WNW 11.5 mph 24.2 mph N/A   Overcast
7:52 AM 28.9 °F 18.2 °F 21.9 °F 75% 30.23 in 10.0 mi NW 13.8 mph 23.0 mph N/A   Overcast
7:59 AM 28.0 °F 18.6 °F 21.9 °F 78% 30.20 in 10.0 mi WNW 10.4 mph - N/A   Mostly Cloudy
8:29 AM 28.9 °F 20.4 °F 23.0 °F 78% 30.21 in 10.0 mi WNW 9.2 mph - N/A   Mostly Cloudy
8:52 AM 28.9 °F 18.2 °F 23.0 °F 78% 30.26 in 10.0 mi WNW 13.8 mph 23.0 mph N/A   Overcast
9:52 AM 30.0 °F 21.1 °F 23.0 °F 75% 30.28 in 10.0 mi WNW 10.4 mph 26.5 mph N/A   Overcast
10:52 AM 32.0 °F 22.5 °F 23.0 °F 69% 30.30 in 10.0 mi WNW 12.7 mph 24.2 mph N/A   Scattered Clouds
11:52 AM 35.1 °F 26.4 °F 21.0 °F 57% 30.30 in 10.0 mi WNW 12.7 mph 20.7 mph N/A   Partly Cloudy
12:52 PM 37.9 °F 28.5 °F 21.9 °F 53% 30.30 in 10.0 mi NW 17.3 mph 24.2 mph N/A   Clear
2:52 PM 39.9 °F 31.4 °F 21.9 °F 49% 30.28 in 10.0 mi West 16.1 mph 24.2 mph N/A   Clear
3:52 PM 39.9 °F 31.8 °F 21.0 °F 47% 30.27 in 10.0 mi West 15.0 mph - N/A   Clear
4:52 PM 39.9 °F 32.5 °F 21.9 °F 49% 30.28 in 10.0 mi West 12.7 mph - N/A   Clear
5:52 PM 39.0 °F 34.0 °F 21.0 °F 49% 30.30 in 10.0 mi West 6.9 mph - N/A   Clear
6:52 PM 35.1 °F 29.3 °F 21.0 °F 57% 30.32 in 10.0 mi West 6.9 mph - N/A   Clear
7:52 PM 30.9 °F 26.2 °F 21.9 °F 69% 30.32 in 10.0 mi SW 4.6 mph - N/A   Clear
9:52 PM 30.0 °F 24.1 °F 21.0 °F 69% 30.32 in 10.0 mi South 5.8 mph - N/A   Clear
10:52 PM 28.0 °F 20.8 °F 21.0 °F 75% 30.32 in 10.0 mi South 6.9 mph - N/A   Clear
11:52 PM 28.0 °F 20.8 °F 21.0 °F 75% 30.32 in 10.0 mi South 6.9 mph - N/A   Clear